Powrót do katalogu

FENGYUN 2F

AktywnyPogodaGEO
NORAD 38049·PAYLOAD·🇨🇳 China

Wystrzelony Jan 13, 2012 z Xichang Satellite Launch Center

Loading…

TLE

ŚwieżeSource: Space-Track

Epoka: Sep 14, 2026, 10:05 UTC

1 38049U 12002A   26257.42051113 -.00000186  00000-0  00000-0 0  9994
2 38049   7.7889  65.1272 0002430 174.4562 204.3137  0.99137877 53690

Śledź FENGYUN 2F w czasie rzeczywistym z AllMySat

Download on the App Store